This is the latest recevied weather packets stored in our database for station/object VE7PRT-1. If no packets are shown the sender has not sent any weather packets the latest 10 day(s).
| Time | Temp. | Humidity | Pressure | Rain* | Wind** | Luminosity | Snow |
|---|---|---|---|---|---|---|---|
| 1788054236 | 16.11° C | 93% | 1018.2 hPa | 0 mm | - | - | - |
| 1788053496 | 16.67° C | 92% | 1018.2 hPa | 0 mm | - | - | - |
| 1788052701 | 17.22° C | 91% | 1018.3 hPa | 0 mm | - | - | - |
| 1788051816 | 17.78° C | 90% | 1018.2 hPa | 0 mm | - | - | - |
| 1788050973 | 17.78° C | 88% | 1018.2 hPa | 0 mm | - | - | - |
| 1788050136 | 18.33° C | 87% | 1018.2 hPa | 0 mm | - | - | - |
| 1788049333 | 18.89° C | 87% | 1018.2 hPa | 0 mm | - | - | - |
| 1788048578 | 18.89° C | 87% | 1018.2 hPa | 0 mm | - | - | - |
| 1788047733 | 18.89° C | 86% | 1018.3 hPa | 0 mm | - | - | - |
| 1788046961 | 18.89° C | 87% | 1018.3 hPa | 0 mm | - | - | - |
| 1788046116 | 18.89° C | 86% | 1018.3 hPa | 0 mm | - | - | - |
| 1788045385 | 18.89° C | 89% | 1018.3 hPa | 0 mm | - | - | - |
| 1788044586 | 18.89° C | 86% | 1018.2 hPa | 0 mm | - | - | - |
| 1788043806 | 18.89° C | 85% | 1018.2 hPa | 0 mm | - | - | - |
| 1788042927 | 18.89° C | 84% | 1018.2 hPa | 0 mm | - | - | - |
| 1788042141 | 18.89° C | 82% | 1018.1 hPa | 0 mm | - | - | - |
| 1788041386 | 18.33° C | 83% | 1018.1 hPa | 0 mm | - | - | - |
| 1788040626 | 17.78° C | 90% | 1018 hPa | 0 mm | - | - | - |
| 1788039844 | 16.67° C | 89% | 1018.1 hPa | 0 mm | - | - | - |
| 1788039086 | 17.22° C | 90% | 1018.2 hPa | 0 mm | - | - | - |
| 1788038211 | 16.67° C | 91% | 1018 hPa | 0 mm | - | - | - |
| 1788037461 | 16.11° C | 92% | 1017.9 hPa | 0 mm | - | - | - |
| 1788036701 | 16.11° C | 93% | 1017.8 hPa | 0 mm | - | - | - |
| 1788035811 | 16.11° C | 92% | 1017.7 hPa | 0 mm | - | - | - |
| 1788034951 | 15.56° C | 92% | 1017.7 hPa | 0 mm | - | - | - |
* Rain latest hour (hover to see other rain measurements)
** Current wind speed in m/s (hover to see current wind gust speed)